GEFSSGP_con_probscp_204.txt.gz
Probability
1 2 2 2 1 0 0 0 0 0 0 0 0 0 0 0 0 0 0 0 0 0 0 0 0 0 0 0 0 0 0 0 1 0 0 0 1 3 3 3 2 1 0 0 1 2 2 1 0
0 1 1 1 0 0 0 0 0 0 0 0 0 0 0 0 0 0 0 0 0 0 0 0 0 0 0 0 0 0 0 0 1 1 1 1 2 3 3 3 3 2 1 0 0 1 1 0 0
0 0 0 0 0 0 0 0 0 0 0 0 0 0 0 0 0 0 0 0 0 0 0 0 0 0 0 0 0 0 0 0 1 2 2 2 3 3 3 3 3 2 1 0 0 0 0 0 0
0 0 0 0 0 0 0 0 1 1 1 0 0 0 0 0 0 0 0 0 0 0 0 0 0 0 0 0 0 0 0 0 1 1 1 1 2 2 1 2 1 1 0 0 0 0 0 0 0
0 0 0 0 0 0 0 0 1 2 1 0 0 0 0 0 0 0 0 0 0 0 0 0 0 0 0 0 0 0 0 1 1 0 0 0 1 1 1 0 0 0 0 0 0 0 0 0 0
0 0 0 0 0 0 0 0 1 2 2 1 0 1 3 2 1 0 0 0 0 0 0 0 0 0 0 0 0 0 0 0 0 0 0 0 0 0 0 0 0 0 0 0 0 0 0 0 0
0 0 0 0 0 0 0 0 0 1 2 2 1 2 5 5 2 0 0 0 0 0 0 0 0 0 0 0 0 0 0 0 0 0 0 0 0 0 0 0 0 0 0 0 0 0 0 0 0
0 0 0 0 0 0 0 0 0 1 2 2 1 1 5 7 5 2 1 1 0 0 0 0 0 0 0 0 0 0 0 0 0 0 0 0 0 0 0 0 0 0 0 0 0 0 0 0 0
0 0 0 0 0 0 0 0 0 1 2 2 1 3 7 11 10 6 3 2 1 0 0 0 0 0 0 0 0 0 0 0 0 0 0 0 0 0 0 0 0 0 0 0 0 0 0 0 0
0 0 0 0 0 0 0 0 0 0 1 3 4 7 14 16 13 9 5 3 2 1 0 0 0 0 0 0 0 0 0 0 0 0 0 0 0 0 0 0 0 0 0 0 0 0 0 0 0
0 0 0 0 0 0 0 0 0 0 1 3 6 13 18 18 13 9 6 4 2 1 0 0 0 0 0 0 0 0 0 0 0 0 0 0 0 0 0 0 0 0 0 0 0 0 0 0 0
0 0 0 0 0 0 0 0 0 0 0 2 7 14 17 15 10 7 6 5 3 1 0 0 0 0 0 0 0 0 0 0 0 0 0 0 0 0 0 0 0 0 0 0 0 0 0 0 0
0 0 0 0 0 0 0 0 0 0 0 2 7 12 14 11 8 6 6 5 3 1 0 0 0 0 0 0 0 0 0 0 0 0 0 0 0 0 0 0 0 0 0 0 0 0 0 0 0
0 0 0 0 0 0 0 0 0 0 1 4 7 9 9 8 6 5 5 6 5 2 0 0 0 0 0 0 0 0 0 0 0 0 0 0 0 0 0 0 0 0 0 0 0 0 0 0 0
0 0 0 0 0 0 0 0 0 1 2 5 7 7 8 7 5 4 4 6 5 3 1 1 0 0 0 0 0 0 0 0 0 0 0 0 0 0 0 0 0 0 0 0 0 0 0 0 0
0 0 0 0 0 0 0 0 1 2 5 6 7 8 9 8 6 3 4 6 6 5 4 3 3 2 1 0 0 0 0 0 0 0 0 1 1 1 0 0 0 0 0 0 0 0 0 0 0
0 0 0 0 0 0 0 0 1 3 5 6 7 9 9 8 6 4 4 7 9 8 7 6 5 4 1 0 1 1 1 1 1 1 1 2 2 2 1 0 0 1 1 1 0 1 2 1 0
0 0 0 0 0 0 0 0 0 2 4 5 6 7 8 6 5 4 6 9 11 10 9 8 8 7 4 3 3 3 3 3 3 4 4 4 4 3 2 1 1 1 2 1 0 1 2 2 1
0 0 0 0 0 0 0 0 0 0 2 3 5 6 6 6 6 7 10 12 13 13 13 13 13 13 11 9 8 7 6 6 6 7 7 7 6 5 4 3 2 2 3 4 2 2 2 1 0
0 0 0 1 0 0 0 0 0 0 1 2 4 6 6 7 9 13 15 17 17 19 20 19 18 18 17 14 12 11 9 8 8 8 9 9 9 8 7 5 4 4 6 7 6 4 2 1 0
0 0 0 0 0 0 0 0 0 0 0 1 3 4 5 7 10 15 20 24 26 27 25 22 21 21 20 17 13 12 12 11 10 10 9 9 9 9 8 7 6 7 8 9 8 6 5 3 1
0 0 0 0 0 0 0 0 0 0 0 0 1 2 4 5 7 14 24 32 35 33 29 25 23 23 23 20 15 14 14 13 12 12 10 9 9 8 7 8 8 9 10 10 8 8 8 6 4
0 0 0 0 0 0 0 0 0 0 1 0 0 1 3 4 5 12 24 35 38 35 32 30 29 28 27 23 19 17 15 14 13 13 12 10 9 8 8 8 9 11 12 10 8 8 9 8 6
0 0 0 0 0 0 0 0 0 0 0 0 0 1 3 5 7 13 23 34 39 37 35 36 37 36 32 25 22 21 18 16 16 15 15 12 10 9 9 10 11 13 12 9 7 7 7 7 6
0 0 0 0 0 0 0 0 0 0 0 0 0 1 3 6 9 16 24 33 42 44 42 43 44 41 34 27 24 23 22 20 19 19 18 15 12 11 10 11 13 14 12 8 6 8 8 7 6
0 0 0 0 0 0 0 0 0 0 0 0 1 2 3 6 11 17 24 32 40 46 47 47 45 42 37 31 26 24 24 22 21 22 20 17 14 13 12 12 13 15 13 10 8 9 10 9 8
0 0 0 0 0 0 0 0 0 1 2 2 3 4 5 8 11 17 23 30 37 44 48 46 45 45 43 36 29 25 24 23 23 23 20 18 16 15 12 12 13 15 14 10 8 9 10 10 10
0 0 0 0 0 0 0 0 2 4 6 7 7 8 10 12 15 19 25 31 36 41 45 44 44 45 44 38 30 25 23 22 22 21 19 18 17 15 13 13 13 12 11 10 8 8 8 9 10
0 0 0 0 0 0 0 1 4 6 9 11 11 13 15 18 21 23 28 33 35 38 42 44 43 43 41 36 30 24 19 18 18 17 17 17 17 16 13 11 10 8 8 9 9 8 8 8 9
0 0 0 0 0 0 0 1 4 6 9 12 14 15 18 21 24 27 31 34 35 37 42 45 44 42 40 34 29 22 16 14 15 14 14 15 17 16 13 10 7 6 8 10 10 10 9 8 8

GEFSSGP_con_probscp_210.txt.gz
Probability
1 5 12 18 14 5 1 0 0 0 0 0 1 0 0 0 1 3 2 1 0 0 0 0 0 0 0 0 0 0 0 0 0 0 0 0 1 3 3 3 3 3 3 2 1 0 1 1 1
1 3 8 11 8 3 0 0 0 0 0 0 1 0 0 1 2 3 2 1 0 0 0 0 0 0 0 0 0 0 0 0 0 0 0 1 2 3 3 3 3 3 2 2 1 0 0 0 0
1 2 4 4 2 0 0 0 0 0 0 0 0 0 0 1 2 3 2 1 0 0 0 0 0 0 0 0 0 0 0 0 0 0 1 2 3 3 3 2 2 1 1 1 0 0 0 0 0
1 2 2 1 0 0 0 0 0 0 0 0 0 0 0 1 3 3 2 1 0 0 0 0 0 0 0 0 0 0 0 0 0 0 1 2 3 3 1 1 1 0 0 0 0 0 0 0 0
1 2 2 1 0 0 0 0 0 0 1 1 1 0 1 3 4 4 2 1 0 0 0 0 0 0 0 0 0 0 0 0 0 0 1 1 2 2 1 0 0 0 0 0 0 0 0 0 0
0 1 1 0 0 0 0 0 0 0 1 2 2 0 1 4 5 3 2 0 0 0 0 0 0 0 0 0 0 0 0 0 0 1 1 1 1 1 0 0 0 0 0 0 0 0 0 0 0
0 0 0 0 0 0 0 0 0 0 1 2 2 1 2 4 5 4 3 1 0 0 0 0 0 0 0 0 0 0 0 0 0 1 2 1 0 0 0 0 0 0 0 0 0 0 0 0 0
0 0 0 0 0 0 0 0 0 1 2 3 2 1 3 4 5 6 5 3 1 1 0 0 0 0 0 0 0 0 0 0 0 1 1 0 0 0 0 0 0 0 0 0 0 0 0 0 0
0 0 0 0 0 0 0 0 1 2 3 3 3 4 4 5 6 6 6 5 4 2 1 0 0 0 0 0 0 0 0 0 0 0 0 0 0 0 0 0 0 0 0 0 0 0 0 0 0
0 0 0 0 0 0 0 0 1 2 4 6 9 9 7 6 6 6 6 5 4 3 2 1 0 0 0 0 0 0 0 0 0 0 0 0 0 0 0 0 0 0 0 0 0 0 0 0 0
0 0 0 0 0 0 0 0 0 2 5 10 14 13 9 7 6 5 6 5 4 3 3 3 1 0 1 1 0 0 0 0 1 1 1 0 0 1 1 1 0 0 0 0 0 0 0 0 0
0 0 0 0 0 0 0 0 0 1 4 10 15 14 10 7 5 5 6 6 6 4 3 3 3 2 3 3 2 0 0 0 2 3 2 0 0 1 2 2 1 0 0 0 0 0 0 0 0
0 0 0 0 0 0 0 0 0 1 5 10 14 13 11 8 8 8 8 10 10 8 5 5 6 5 5 6 4 1 0 1 4 4 2 0 1 2 3 3 3 1 0 0 0 0 0 0 0
0 0 0 0 0 0 0 1 1 2 6 10 12 11 9 10 12 13 14 15 14 11 9 8 9 8 7 6 4 1 1 2 4 5 4 2 3 3 4 5 4 1 0 0 0 0 0 0 0
0 0 0 0 0 0 0 1 2 3 5 8 10 10 10 14 16 18 20 20 17 15 13 12 11 11 10 7 3 1 1 3 5 6 7 6 4 4 6 6 4 2 0 1 1 1 1 0 0
0 0 0 0 0 0 1 2 3 2 3 6 10 13 16 18 20 22 23 21 20 21 21 16 13 15 15 10 5 2 2 5 7 8 9 9 7 6 6 5 3 3 2 2 2 1 1 1 0
0 0 0 0 0 0 1 3 4 2 1 4 10 17 23 24 24 26 25 23 26 31 30 24 21 22 21 16 10 5 4 7 9 10 12 14 13 10 8 5 4 5 5 5 3 2 1 1 1
0 0 0 0 0 0 2 4 4 2 1 4 11 19 26 28 28 30 29 28 32 37 37 33 31 31 27 21 15 11 9 10 11 11 17 21 19 16 13 10 8 8 8 7 6 5 4 2 1
0 0 0 0 0 0 2 4 4 2 1 5 13 22 28 31 32 35 37 36 38 43 45 43 41 38 33 27 21 17 17 17 14 14 21 26 23 19 17 15 14 12 11 9 8 8 7 4 3
0 0 0 0 0 0 2 5 6 3 2 6 13 22 29 34 38 41 44 44 46 52 54 51 47 43 38 32 26 23 23 22 18 18 24 27 23 18 16 16 16 15 13 11 10 10 9 7 6
0 0 0 0 0 0 1 5 8 4 2 5 11 18 25 32 40 47 50 51 55 60 60 55 50 47 43 37 31 29 28 25 22 23 26 25 21 17 15 15 16 15 13 12 11 12 11 9 7
0 0 0 0 0 0 0 4 8 6 3 4 9 14 20 28 40 50 55 58 61 62 61 59 57 53 48 42 37 34 31 28 26 26 27 26 22 18 15 16 18 16 13 11 11 12 12 10 8
0 0 0 0 0 0 0 2 7 8 6 6 8 12 17 27 40 51 57 61 63 62 60 62 64 62 55 47 42 39 35 32 30 29 31 29 25 19 16 19 21 19 14 12 12 12 11 10 8
0 0 0 0 0 0 0 1 5 8 8 7 9 12 16 24 39 52 59 63 64 62 62 66 69 68 61 53 48 44 42 39 36 34 34 31 26 21 18 21 24 22 18 15 14 13 13 12 10
0 0 0 0 0 0 0 1 2 5 7 7 9 12 15 21 36 52 62 66 66 65 67 73 75 71 65 59 54 50 46 43 38 35 32 29 26 23 23 25 28 26 22 18 16 15 15 14 14
0 0 0 0 0 0 1 0 1 4 6 7 9 11 13 20 34 51 64 69 67 67 72 80 81 75 68 61 57 54 49 43 37 32 30 29 26 24 26 30 32 30 25 20 18 17 16 17 18
0 0 0 0 0 0 0 0 1 3 5 6 7 9 11 18 32 50 63 66 65 67 74 80 82 79 71 63 58 55 51 45 37 31 30 31 28 25 26 31 32 31 27 24 23 21 20 20 20
0 0 0 0 0 0 0 1 2 3 5 5 5 6 9 15 28 46 59 64 64 67 73 78 81 79 72 65 60 57 54 49 42 35 33 35 32 27 27 29 31 30 28 26 25 24 23 21 19
0 0 0 0 0 0 1 3 4 5 7 7 8 9 10 13 24 39 53 62 64 66 70 75 77 77 73 67 62 60 58 54 46 40 38 38 36 33 31 30 29 30 30 28 26 25 23 20 18
0 0 0 0 0 1 2 3 5 7 10 11 12 13 11 14 21 32 46 59 63 64 68 71 74 76 73 67 62 60 60 56 48 42 40 40 39 38 35 31 29 28 30 30 28 26 24 20 18

GEFSSGP_con_probscp_216.txt.gz
Probability
0 0 0 1 0 0 0 1 1 1 0 0 0 0 0 0 0 0 0 0 0 0 0 0 0 0 0 0 0 1 1 1 0 0 0 1 2 1 0 0 0 1 3 3 1 0 0 0 0
0 0 0 1 0 0 0 2 4 3 1 0 0 0 0 0 0 0 0 0 0 0 0 0 0 0 0 0 0 0 0 0 0 0 0 1 2 1 1 1 1 2 3 3 2 1 0 0 0
0 0 0 0 0 0 1 5 9 7 2 0 0 0 0 0 0 0 0 0 0 0 0 0 0 0 0 0 0 0 0 0 0 0 0 1 2 3 2 2 3 3 3 3 2 1 0 0 0
0 0 0 0 0 0 1 6 11 10 4 1 1 1 0 1 2 1 0 0 0 0 0 0 0 0 0 0 0 0 0 0 0 0 1 1 3 3 3 3 3 3 3 3 2 1 0 0 0
0 0 0 0 0 0 1 5 9 8 5 3 3 2 2 4 6 4 1 0 0 0 0 0 0 0 0 0 0 0 0 0 0 1 2 3 3 3 3 3 2 2 2 2 1 0 0 0 0
0 0 0 0 0 0 1 3 5 5 5 4 4 3 4 8 9 6 2 0 0 0 0 0 0 0 0 0 0 1 1 0 0 1 2 3 3 3 3 1 1 1 1 1 0 0 0 0 0
0 0 0 0 0 0 0 1 2 4 5 4 4 3 5 10 11 7 2 0 0 0 0 0 0 0 0 0 0 1 1 0 0 1 2 3 3 3 2 1 0 0 0 0 0 0 0 0 0
0 0 0 0 0 0 0 0 1 4 5 4 4 4 6 10 13 10 4 1 0 0 0 0 0 0 0 0 0 0 0 0 0 0 1 2 2 2 1 0 0 0 0 0 0 0 0 1 1
0 0 0 0 0 0 0 0 1 3 5 5 4 5 8 13 15 13 8 4 2 0 0 0 0 0 0 0 0 0 0 0 0 0 1 1 1 1 0 0 0 0 0 0 0 0 0 1 2
0 0 0 0 0 0 0 1 1 3 5 5 5 7 11 15 17 15 12 7 3 1 0 0 0 0 0 0 0 0 0 0 0 0 0 0 0 0 0 0 0 0 0 0 0 0 0 1 1
0 0 0 0 0 0 1 2 3 3 4 6 8 9 11 14 15 15 12 8 5 3 1 0 0 0 0 0 0 0 0 0 0 0 0 0 0 0 0 0 0 0 0 0 0 0 0 0 0
0 0 0 0 0 1 2 3 3 2 3 7 9 8 8 9 10 12 12 9 6 5 3 1 0 0 0 0 0 0 0 0 0 0 0 0 0 0 0 0 0 0 0 0 0 0 0 0 0
0 0 0 0 0 2 3 2 1 1 4 8 9 7 5 6 7 10 13 11 9 8 6 2 1 0 0 1 1 0 1 1 1 0 0 0 0 0 0 0 0 0 0 0 0 0 0 0 0
0 0 0 0 0 2 3 2 0 2 6 9 8 6 5 6 9 13 15 14 12 12 9 5 3 2 1 2 2 1 1 2 2 1 0 0 0 0 0 0 0 0 0 0 0 0 0 0 0
0 0 0 0 0 1 2 1 1 4 9 10 8 7 8 10 12 15 16 15 13 13 11 8 7 4 2 3 3 1 1 2 2 1 1 2 2 1 1 1 0 0 0 0 0 0 0 0 0
0 0 0 0 0 1 2 2 2 6 10 11 10 10 11 12 13 16 17 15 13 14 14 11 10 7 4 4 4 1 0 1 1 2 3 4 4 3 3 2 1 1 0 0 0 0 0 0 0
0 0 0 0 0 1 3 4 3 5 10 11 12 12 13 12 13 17 19 18 18 19 19 16 12 9 7 6 5 3 1 0 1 3 4 5 6 5 5 4 3 2 1 0 0 0 0 0 0
0 0 0 0 1 2 5 7 5 4 8 12 12 13 13 14 15 18 21 23 24 24 22 19 15 12 9 8 7 5 2 1 1 3 4 5 7 7 6 5 4 4 3 2 1 0 0 0 0
0 0 0 0 1 3 6 8 7 5 8 13 15 15 14 14 17 20 24 27 29 28 26 23 18 14 12 9 8 6 4 1 1 2 4 6 8 9 8 6 6 6 6 5 3 1 0 0 0
0 0 0 1 2 4 6 8 7 7 9 14 19 20 17 14 16 20 24 29 33 33 32 30 24 17 13 10 8 7 5 3 2 3 5 6 8 9 10 9 8 8 8 7 6 4 3 2 1
0 0 0 1 2 4 5 5 5 6 9 14 20 23 20 16 17 19 23 30 37 39 37 36 30 21 15 12 11 11 9 6 5 5 5 6 7 9 11 11 11 10 9 9 8 8 7 5 3
0 0 0 0 1 2 3 3 2 5 8 13 19 23 22 19 19 21 24 30 39 43 41 40 36 27 18 15 15 16 13 9 6 6 6 5 6 8 10 12 12 11 10 10 10 10 9 8 6
0 0 0 0 0 0 1 1 1 4 9 13 17 21 22 21 22 24 27 30 36 43 44 43 41 33 23 18 17 18 16 10 8 8 7 5 4 6 9 11 12 11 9 9 9 9 9 9 8
0 0 0 0 0 0 0 0 0 3 9 15 18 20 22 23 25 28 31 32 34 40 44 44 44 38 27 21 19 19 17 13 11 11 10 7 5 6 8 9 10 9 7 7 8 8 8 8 7
0 0 0 0 0 0 0 0 0 3 8 14 19 22 25 26 28 33 38 38 37 42 47 49 48 42 32 25 21 20 17 16 15 14 11 9 8 8 8 8 8 7 6 6 6 6 6 5 4
0 0 0 0 0 0 0 0 1 3 7 14 20 26 29 29 31 36 43 45 43 45 52 55 52 47 39 31 25 21 19 18 17 13 11 10 10 10 10 9 7 6 5 5 6 5 4 3 1
0 0 0 0 0 0 0 1 2 4 8 14 21 27 32 34 33 37 43 46 45 46 51 55 53 48 43 36 29 23 20 20 19 15 11 11 11 11 10 9 7 5 5 5 5 5 4 3 1
0 0 0 0 0 0 1 2 3 5 9 15 20 26 32 35 36 38 42 45 45 46 49 51 50 47 43 38 31 24 20 21 21 18 13 10 10 10 8 7 6 5 5 5 4 3 3 2 2
0 0 0 0 0 0 1 2 4 8 12 16 19 23 29 35 37 39 41 43 43 45 49 50 48 46 43 39 32 25 21 22 22 19 12 8 7 7 6 4 4 5 5 5 3 1 1 1 1
0 0 0 0 0 0 0 2 6 11 15 18 19 22 28 36 39 38 39 41 41 44 49 50 49 47 44 40 34 27 22 22 23 19 12 7 5 6 5 4 4 6 6 5 3 1 0 0 0

GEFSSGP_con_probscp_222.txt.gz
Probability
0 0 0 0 0 0 0 0 0 0 0 0 0 0 0 0 0 0 0 0 0 0 0 0 0 0 0 0 0 1 2 3 1 0 0 0 0 0 0 0 0 0 0 0 0 0 0 0 0
0 0 0 0 0 0 0 0 0 0 0 0 0 0 0 0 0 0 0 0 0 0 0 0 0 0 0 0 0 1 2 2 1 0 0 0 0 0 1 1 1 0 0 0 0 0 0 0 0
0 0 0 0 0 0 0 0 0 0 0 0 0 1 1 0 0 0 0 0 0 0 0 0 0 0 0 0 0 0 1 1 1 0 0 0 0 1 2 2 2 1 0 0 0 0 0 0 0
0 0 0 0 0 0 0 0 0 0 0 0 0 1 1 0 0 0 0 0 0 0 0 0 0 0 0 0 0 0 0 0 0 0 0 0 0 1 2 3 3 1 1 2 1 0 0 0 0
0 0 0 0 0 0 0 0 0 0 0 0 0 1 1 0 1 1 0 0 0 0 0 0 0 0 0 0 0 0 0 0 0 0 0 0 0 1 3 3 3 3 3 3 2 1 0 0 0
0 0 0 0 0 0 0 0 0 0 0 0 0 0 0 1 2 1 0 0 0 0 0 0 0 0 0 0 0 0 0 0 0 0 1 2 2 2 3 3 3 3 3 3 2 1 0 0 1
0 0 0 0 0 0 0 0 0 1 0 0 0 0 0 1 2 1 0 0 0 0 0 0 0 0 0 0 0 0 0 0 0 1 2 3 2 2 3 3 3 3 3 2 2 1 0 1 2
0 0 0 0 0 0 0 0 0 1 1 1 0 0 1 2 3 2 0 0 0 0 0 0 0 0 0 0 0 0 1 0 1 2 3 3 1 1 2 2 2 2 1 1 1 0 0 1 2
0 0 0 0 0 0 0 0 1 2 2 2 2 2 3 5 5 4 1 0 0 0 0 0 0 0 0 0 0 0 0 0 1 2 2 2 1 0 1 1 1 1 0 0 0 0 0 1 1
0 0 0 0 0 0 0 1 2 3 2 3 4 5 7 8 7 5 2 0 0 0 0 0 0 0 0 0 0 0 0 0 0 1 1 1 0 0 0 0 0 0 0 0 0 0 0 0 0
0 0 0 0 0 0 1 1 2 1 1 2 4 7 9 8 6 4 2 0 0 0 0 0 0 0 0 0 0 0 0 0 0 0 0 0 0 0 0 0 0 0 0 0 0 0 0 0 0
0 0 0 0 0 1 2 2 1 0 0 2 5 7 6 4 3 2 1 1 1 0 0 0 0 0 0 0 0 0 0 0 0 0 0 0 0 0 0 0 0 0 0 0 0 0 0 0 0
0 0 0 0 0 1 2 2 1 0 1 3 6 5 3 2 1 0 0 0 0 0 0 0 0 0 0 0 0 0 0 0 0 0 0 0 0 0 0 0 0 0 0 0 0 0 0 0 0
0 0 0 0 0 1 1 1 0 0 2 5 7 5 2 2 1 0 0 0 0 0 0 0 0 0 0 0 0 0 0 0 0 0 0 0 0 0 0 0 0 0 0 0 0 0 0 0 0
0 0 0 0 0 0 0 0 0 0 2 6 7 4 2 2 1 1 2 1 0 0 0 0 0 0 0 0 0 0 0 0 0 0 0 0 0 0 0 0 0 0 0 0 0 0 0 0 0
0 0 0 0 0 0 0 0 0 0 2 4 5 4 2 1 1 2 3 2 2 1 1 1 0 0 1 1 0 1 1 1 1 0 0 0 0 0 1 1 1 0 0 0 0 0 0 0 0
0 0 0 0 0 0 0 0 0 0 1 2 3 3 1 0 0 1 2 3 4 4 3 2 1 1 2 2 1 2 2 2 1 0 1 2 1 1 2 2 2 1 1 0 0 0 0 0 0
0 0 0 0 0 0 0 0 0 0 0 1 2 1 0 0 0 0 1 3 5 5 4 3 1 1 2 3 2 2 2 2 2 2 3 4 3 2 3 4 3 3 2 1 1 0 0 0 0
0 0 0 0 0 0 0 0 0 0 0 0 1 1 0 0 1 1 1 3 5 5 4 3 3 3 4 4 4 3 3 3 3 4 5 5 5 5 5 5 5 5 5 4 2 1 0 0 0
0 0 0 0 0 0 0 0 0 0 0 1 1 1 0 1 3 4 4 5 7 8 7 5 5 6 6 6 5 4 3 3 4 5 6 5 5 6 6 6 6 8 8 7 5 4 3 2 1
0 0 0 0 0 0 0 0 0 0 1 2 1 0 1 4 8 9 8 8 11 13 12 9 7 7 7 7 6 4 3 3 4 5 4 4 4 5 5 5 6 8 9 9 8 8 7 5 4
0 0 0 0 0 0 0 0 0 0 1 2 2 1 2 6 11 12 11 11 13 16 15 13 10 8 8 8 7 6 4 3 3 4 3 3 3 3 3 3 4 5 7 8 9 9 9 8 6
0 0 0 0 0 0 0 0 0 0 2 3 3 2 3 8 13 14 15 15 15 15 16 15 12 11 11 11 9 7 4 3 3 3 3 3 3 2 2 2 2 3 4 6 7 7 7 7 6
0 0 0 0 0 0 0 0 0 0 1 3 3 3 5 10 13 14 15 15 15 15 16 17 16 16 16 14 11 8 5 4 3 3 3 3 3 2 1 1 1 2 2 3 4 3 3 3 3
0 0 0 0 0 0 0 0 0 0 2 3 4 3 6 10 11 11 11 12 14 16 19 21 23 22 20 16 13 11 8 5 4 3 3 4 4 1 0 2 3 3 2 2 2 1 1 0 0
0 0 0 0 0 0 0 0 1 2 4 4 4 4 5 7 8 8 9 10 12 15 21 26 28 27 24 19 17 15 11 7 6 5 4 5 4 2 1 3 3 3 2 1 1 1 0 0 0
0 0 0 0 0 0 0 1 2 4 6 6 5 3 3 4 5 7 8 9 12 15 21 28 30 29 26 22 21 19 15 12 11 9 8 7 6 4 2 2 1 1 1 0 0 0 0 0 0
0 0 0 0 0 0 0 1 3 4 6 7 6 3 2 3 5 8 8 9 11 14 18 25 29 29 26 23 23 21 18 16 16 14 12 11 10 5 1 0 0 0 0 0 0 0 0 0 0
0 0 0 0 0 0 0 1 2 4 5 6 6 5 5 5 7 10 11 11 12 14 19 24 27 29 27 25 24 22 20 18 17 16 15 14 11 7 2 1 0 0 0 0 0 0 0 0 0
0 0 0 0 0 0 0 0 2 4 5 5 7 8 7 7 10 12 14 16 16 18 21 25 28 30 28 27 25 23 21 19 17 16 16 14 12 7 4 2 1 0 0 1 1 1 0 0 0

GEFSSGP_con_probscp_228.txt.gz
Probability
0 1 1 2 1 1 0 0 0 0 0 0 0 0 0 0 0 0 0 0 0 0 0 0 0 0 0 0 0 1 1 1 0 0 0 0 0 0 0 0 0 0 0 0 0 0 0 0 0
0 0 1 1 1 0 0 0 0 0 0 0 0 0 0 0 0 0 0 0 0 0 0 0 0 0 0 0 0 0 1 1 1 0 0 0 0 0 0 0 0 0 0 0 0 0 0 0 0
0 0 1 1 0 0 0 0 0 0 0 0 0 0 0 0 0 0 0 0 0 0 0 0 0 0 0 0 0 0 1 2 1 0 0 0 1 1 1 1 2 1 0 0 0 0 0 0 0
0 0 0 0 0 0 0 0 0 0 0 0 0 1 1 0 0 0 0 0 0 0 0 0 0 0 0 0 0 1 2 2 1 0 0 0 1 2 2 2 3 2 1 0 0 0 0 0 0
0 0 0 0 0 0 0 0 0 0 0 0 1 2 2 1 0 0 0 0 0 0 0 0 0 0 0 0 0 1 1 1 1 2 1 0 1 2 3 2 3 2 1 0 0 0 0 0 0
0 0 0 0 0 0 0 0 0 0 0 0 1 2 3 1 0 0 0 0 0 0 0 0 0 0 0 0 0 0 1 1 2 3 2 1 1 3 3 3 3 2 1 0 0 0 0 0 0
0 0 0 0 0 0 0 0 0 0 0 0 1 2 3 2 1 0 0 0 0 0 0 0 0 0 0 0 0 0 1 2 3 3 3 3 3 3 3 3 3 2 1 0 0 0 0 0 0
0 0 0 0 0 0 0 0 0 0 0 0 1 2 4 4 3 1 0 0 0 0 0 0 0 0 0 0 0 0 1 2 3 3 3 3 3 3 3 3 3 1 0 0 0 0 0 0 0
0 0 0 0 0 0 0 0 0 0 0 0 1 3 5 7 6 3 2 1 1 0 0 0 0 0 0 0 0 0 0 2 3 3 3 3 2 2 2 2 2 1 0 0 0 1 1 1 1
0 0 0 0 0 0 0 0 0 0 0 1 2 5 9 10 8 6 4 3 2 1 0 0 0 0 0 0 0 0 0 1 2 2 2 2 1 0 1 1 1 0 0 0 0 1 1 1 0
0 0 0 0 0 0 0 0 0 0 0 1 3 8 12 11 8 6 5 4 3 2 1 0 0 0 0 0 0 0 0 1 1 1 1 1 0 0 0 0 0 0 0 0 0 1 1 0 0
0 0 0 0 0 0 0 0 0 0 0 0 3 8 11 9 6 4 4 3 3 3 2 1 1 0 0 1 1 1 0 0 0 0 0 0 0 0 0 0 0 0 0 0 0 0 0 0 0
0 0 0 0 0 0 0 0 0 0 0 0 3 6 8 7 4 3 3 3 3 3 3 2 1 1 1 1 1 1 0 0 0 0 0 0 0 0 0 0 0 0 0 0 0 0 0 0 0
0 0 0 0 0 0 0 0 0 0 0 0 1 4 6 6 5 3 3 3 3 3 3 3 3 3 3 2 1 0 0 0 0 0 0 0 0 0 0 0 0 0 0 1 1 0 1 1 1
0 0 0 0 0 0 0 0 0 0 0 0 0 1 3 5 5 4 3 3 3 3 3 3 3 4 4 3 1 0 0 0 1 1 1 1 1 1 0 1 2 2 2 2 3 2 2 2 1
0 0 0 0 0 0 0 0 0 0 0 0 0 0 2 5 6 4 3 3 3 3 3 3 3 4 5 5 3 1 1 1 2 2 2 3 3 3 2 3 5 4 3 4 5 5 5 3 2
0 0 0 0 0 0 0 0 0 0 0 0 0 0 1 3 5 5 4 3 3 3 3 3 4 5 6 6 5 4 3 3 3 3 3 4 5 5 5 6 6 5 4 5 6 6 6 5 4
0 0 0 0 0 0 0 0 0 0 0 0 0 0 0 2 4 5 5 4 4 4 6 6 7 7 7 7 6 6 5 4 3 3 3 4 6 7 8 7 6 5 5 7 7 7 7 6 6
0 0 0 0 0 0 0 0 0 0 0 0 0 0 0 0 2 3 5 5 5 7 10 11 10 10 9 8 7 6 6 4 3 3 4 5 6 7 8 6 5 6 7 8 8 8 8 8 7
0 0 0 0 0 0 0 0 0 0 0 0 0 0 0 0 0 2 5 7 7 9 12 13 13 13 12 10 7 6 6 5 4 4 5 6 6 5 6 6 4 5 7 8 9 10 10 10 10
0 0 0 0 0 0 0 0 0 0 0 0 0 0 0 0 1 4 8 10 11 11 11 12 15 17 16 12 9 7 7 6 5 5 6 6 6 4 4 5 4 5 6 7 8 10 11 12 12
0 0 0 0 0 0 0 0 0 0 1 0 0 0 0 0 1 4 10 14 14 13 12 14 19 22 21 17 13 10 8 6 5 5 5 6 6 5 4 4 6 6 7 7 8 9 11 12 12
0 0 0 0 0 0 0 0 0 0 0 0 0 0 0 0 1 4 9 14 15 13 12 14 21 25 26 24 21 16 11 7 6 6 6 6 6 6 6 7 9 10 10 9 9 10 10 10 10
0 0 0 0 0 0 0 0 0 0 0 0 0 0 0 0 1 4 9 12 14 13 11 14 21 27 30 31 29 23 16 12 10 10 9 8 8 9 10 12 13 13 12 11 10 10 9 7 6
0 0 0 0 0 0 0 0 0 1 1 1 1 0 0 1 2 6 9 11 12 13 13 15 22 29 33 34 31 27 22 19 17 15 14 13 11 12 15 17 16 14 12 10 10 9 7 6 5
0 0 0 0 0 0 0 0 1 2 5 5 3 2 2 2 4 7 9 10 11 13 16 19 25 30 33 33 31 29 27 24 23 21 19 17 16 16 18 18 16 14 11 9 8 8 7 6 6
0 0 0 0 0 0 0 0 2 4 8 8 6 5 4 4 5 6 8 9 11 14 16 21 25 28 31 32 33 33 31 29 27 26 24 21 20 20 18 16 14 11 9 7 7 7 7 7 7
0 0 0 0 0 0 0 0 2 5 8 9 8 7 8 8 7 7 9 11 12 13 15 19 22 25 30 32 31 32 33 34 34 32 28 25 23 22 19 16 13 9 6 7 8 8 8 8 7
0 0 0 0 0 0 0 0 2 6 9 9 9 10 12 13 11 11 13 15 16 17 18 20 22 26 31 32 31 31 33 35 36 35 32 28 25 24 22 20 17 12 7 7 9 9 8 8 8
0 0 0 0 0 0 0 0 2 7 11 10 10 12 15 16 14 14 16 18 20 22 23 24 26 29 34 34 33 34 35 34 35 35 33 29 25 23 24 24 21 16 10 8 9 9 8 8 9

GEFSSGP_con_probscp_234.txt.gz
Probability
0 2 8 14 12 5 1 0 0 0 0 0 0 0 0 0 0 0 0 0 0 0 0 0 0 0 0 0 0 0 0 0 0 0 0 0 1 1 1 0 0 0 0 0 0 0 0 0 0
0 2 7 11 8 3 0 0 0 0 0 0 0 0 0 0 0 0 0 0 0 1 1 1 0 0 0 0 0 0 0 0 0 0 0 0 0 0 0 0 0 0 0 0 0 0 0 0 0
1 3 5 5 3 1 0 0 0 0 0 0 0 0 0 0 0 0 0 0 1 2 2 2 1 0 0 0 0 0 0 0 0 0 0 0 0 0 0 0 0 0 0 0 0 1 0 0 0
3 3 2 1 1 0 0 0 0 0 0 1 1 0 0 0 0 0 0 0 1 2 3 3 2 1 0 0 0 0 0 0 0 0 0 0 0 0 0 0 0 0 1 0 0 0 0 0 0
2 2 1 0 0 0 0 0 0 0 1 2 2 1 0 0 0 0 0 0 1 2 3 3 3 2 1 0 0 0 0 0 0 0 0 0 0 0 0 0 0 0 0 0 0 0 0 0 0
1 1 0 0 0 0 0 0 0 0 1 2 2 1 0 0 0 1 1 1 1 3 3 3 3 3 2 1 0 0 0 0 0 0 0 1 0 0 0 0 0 0 0 0 0 0 0 0 0
0 0 0 0 0 0 0 0 0 0 1 2 2 1 1 1 1 2 2 2 1 3 4 3 3 3 2 1 0 0 0 0 0 0 0 0 0 0 0 0 0 0 0 0 0 0 0 0 0
0 0 0 0 0 0 0 0 0 0 0 1 2 2 2 2 2 2 3 3 2 3 3 3 3 4 3 2 1 0 0 0 0 0 0 0 0 0 0 0 0 0 0 0 0 0 0 0 0
0 0 0 0 0 0 0 0 0 0 1 1 3 4 4 2 1 2 3 3 3 3 3 3 4 4 4 4 3 1 0 0 0 0 0 1 1 1 1 1 1 0 0 0 1 1 1 1 1
0 0 0 0 0 0 0 0 0 1 2 2 4 7 6 2 1 3 3 3 3 3 3 3 3 3 4 4 4 2 2 1 0 0 0 1 1 1 2 2 2 1 1 1 3 4 4 3 3
0 0 0 0 0 0 0 0 0 1 2 3 6 8 6 3 3 3 3 3 3 3 3 3 3 2 3 3 3 3 3 3 1 1 1 1 1 1 2 4 4 3 3 3 4 5 5 4 3
0 0 0 0 0 0 0 0 0 0 2 4 7 9 8 5 4 3 3 3 3 3 3 3 3 2 2 3 3 3 3 3 2 2 1 1 1 2 3 5 5 4 3 3 4 4 3 2 1
0 0 0 0 0 0 0 0 0 1 2 4 7 9 8 6 5 4 4 3 3 3 3 4 3 3 3 2 2 3 3 2 3 4 3 3 3 3 4 5 5 3 3 4 5 5 3 2 1
0 0 0 0 0 0 0 0 0 1 3 5 7 8 7 7 7 7 6 5 4 4 5 6 5 5 5 4 3 4 4 3 3 6 7 6 6 6 6 7 7 6 5 5 7 7 6 5 4
0 0 0 0 0 1 0 0 0 1 3 5 6 7 7 7 7 9 9 8 7 7 8 9 8 8 8 7 6 6 6 4 4 6 8 9 9 9 8 8 9 8 8 8 8 9 9 8 7
0 0 0 0 0 0 0 0 0 1 3 4 5 6 7 7 8 9 9 10 11 11 12 11 9 10 10 8 6 6 6 5 4 5 8 10 11 11 10 9 10 10 9 8 9 9 9 8 8
0 0 0 0 0 0 0 0 1 3 4 4 5 7 8 8 9 10 9 10 12 15 16 14 11 11 12 9 6 6 6 6 6 7 9 11 12 12 11 11 12 12 11 10 8 8 8 8 8
0 0 0 0 0 1 1 1 2 3 5 5 7 9 11 11 12 13 12 13 16 21 22 18 15 15 14 11 9 8 9 9 10 12 14 14 12 11 10 10 11 12 12 11 9 8 8 8 9
0 0 0 0 0 1 1 1 2 4 5 7 9 12 14 17 18 19 20 22 26 31 31 26 23 22 19 16 14 13 12 12 12 15 17 17 14 12 10 9 9 10 11 11 10 9 8 8 9
0 0 0 0 0 1 1 1 3 5 7 8 9 10 13 19 25 28 27 29 35 40 39 33 30 28 24 19 18 17 16 14 14 15 17 17 16 14 12 10 8 7 9 9 9 9 9 8 8
0 0 0 0 0 0 1 3 6 8 8 8 7 6 9 16 25 30 30 32 38 42 42 38 35 33 28 24 22 23 24 21 18 17 18 19 18 16 15 14 10 7 7 8 8 9 9 9 8
0 0 0 0 0 0 0 3 8 10 9 7 4 3 5 12 22 28 30 33 37 39 39 41 42 39 34 31 30 32 32 29 23 22 25 25 23 20 20 20 16 11 9 8 9 9 9 8 7
0 0 0 0 0 0 0 3 9 12 10 6 4 4 5 11 20 27 31 33 35 34 36 41 47 46 40 37 38 39 37 33 28 27 30 32 29 25 24 26 24 20 16 14 14 12 11 9 7
0 0 0 0 0 0 0 2 8 13 11 8 6 6 7 12 21 28 34 37 36 32 33 41 51 51 46 42 41 41 40 36 33 31 33 34 31 29 28 29 29 28 25 23 20 15 12 10 9
0 0 0 0 0 0 0 3 9 13 13 11 9 9 10 15 23 30 38 43 41 36 37 45 55 57 52 46 43 43 43 40 37 35 35 36 33 33 34 35 36 34 30 28 23 17 12 11 10
0 0 0 0 0 0 1 5 11 14 13 12 11 11 12 16 24 31 37 43 44 43 43 48 56 60 56 50 47 46 45 41 37 35 36 37 35 37 41 44 43 38 32 28 24 19 14 11 10
0 0 0 0 0 0 2 6 11 13 12 11 11 12 13 16 21 28 33 38 41 43 46 48 54 58 57 54 52 52 49 43 37 34 34 34 34 36 43 48 47 42 35 30 26 22 16 12 11
0 0 0 0 0 0 2 5 10 12 13 12 12 12 12 13 16 23 29 34 37 41 46 49 53 58 58 57 56 55 52 46 39 34 31 30 30 34 41 46 45 42 38 33 28 22 17 16 16
0 0 0 0 0 0 1 3 7 11 14 15 15 15 14 12 13 19 28 34 38 41 46 51 55 59 61 61 59 56 54 49 43 37 32 29 29 32 39 43 41 39 36 31 25 19 17 18 19
0 0 0 1 1 1 0 2 5 11 15 17 17 18 16 13 13 19 30 39 43 44 46 51 56 60 63 64 62 57 55 52 45 40 35 31 29 30 36 39 38 35 30 26 22 17 16 17 18

GEFSSGP_con_probscp_240.txt.gz
Probability
1 1 0 1 0 0 1 2 1 0 0 0 0 0 0 0 0 0 0 0 0 0 1 2 1 2 2 2 1 0 0 0 1 2 2 2 1 0 0 0 0 0 1 2 2 1 0 0 0
1 1 1 1 1 0 1 2 1 0 0 0 0 0 0 0 0 0 0 0 0 0 1 1 1 1 1 1 0 0 0 0 0 1 1 1 0 0 0 0 0 0 0 1 2 1 0 0 0
1 2 3 2 1 1 2 2 1 0 0 0 0 0 0 0 0 0 0 0 0 0 0 0 0 0 0 0 0 0 0 0 0 0 0 0 0 0 0 0 0 0 1 1 1 0 0 0 0
3 3 3 2 1 1 2 3 2 0 0 0 0 0 0 0 0 0 0 0 0 0 0 0 0 0 0 0 0 0 0 0 0 0 0 0 0 0 0 0 1 1 1 1 1 0 0 0 0
2 2 1 1 0 1 2 3 2 0 0 0 0 0 0 0 0 0 0 0 0 0 0 0 0 0 0 0 0 0 0 0 0 0 0 0 0 0 1 1 3 3 3 2 1 0 0 0 0
1 1 0 0 0 1 2 3 2 0 0 0 0 0 0 0 0 0 1 1 0 0 0 0 1 0 0 0 0 0 0 0 0 0 0 1 1 1 2 3 4 5 4 3 1 0 0 0 1
0 0 0 0 0 1 2 2 1 0 0 0 0 0 0 0 0 1 2 2 1 1 0 0 0 0 0 0 0 1 1 0 0 0 0 1 2 2 2 3 4 4 3 2 1 0 0 1 2
0 0 0 0 0 0 1 1 1 1 2 1 0 0 0 0 0 1 3 3 3 2 1 0 0 0 0 0 0 1 1 0 0 0 0 1 2 1 2 3 3 3 2 1 0 1 1 2 3
0 0 0 0 0 0 0 1 1 2 3 2 1 1 0 0 1 2 3 3 3 3 2 1 0 0 0 0 0 1 1 0 0 0 0 0 0 0 1 4 4 3 2 1 1 1 2 3 2
0 0 0 0 0 0 0 0 1 1 2 2 3 2 1 1 2 3 4 4 3 3 3 1 0 0 0 0 0 0 0 0 0 0 0 0 0 0 1 3 3 2 2 1 1 1 1 1 1
0 0 0 0 0 0 0 0 0 0 1 2 4 2 1 1 2 5 6 5 4 4 3 2 1 0 0 0 0 0 0 0 0 0 0 0 0 0 0 1 1 1 1 1 0 0 0 1 1
0 0 0 0 0 1 1 2 1 1 1 3 4 3 1 1 3 6 7 7 6 5 4 3 1 0 0 0 0 0 0 0 0 0 0 0 0 0 0 0 0 0 0 0 0 0 0 1 2
0 0 0 0 1 2 4 4 3 2 3 4 4 2 1 2 4 6 7 9 9 7 4 3 3 1 0 0 0 0 1 1 0 0 0 0 0 0 0 0 0 0 0 0 0 0 0 1 1
0 0 0 0 1 3 6 6 4 4 5 4 2 1 1 2 4 6 8 10 10 7 4 4 4 3 1 0 0 0 1 2 1 0 1 1 0 0 0 0 0 0 1 1 1 0 0 0 0
0 0 0 0 0 2 5 4 3 4 5 3 1 0 2 3 4 6 8 8 8 6 5 4 4 4 3 1 1 1 2 2 1 0 1 2 1 1 0 0 0 0 1 2 1 0 0 0 0
0 0 0 0 0 1 3 2 2 3 3 2 0 0 1 3 3 5 7 7 6 5 4 5 5 6 6 4 3 2 2 1 0 0 1 2 3 3 1 0 0 0 2 2 1 0 0 0 0
0 0 0 0 0 1 2 1 1 3 2 1 0 0 1 3 4 5 7 8 7 6 5 5 6 7 8 8 5 4 3 2 2 1 0 2 4 4 3 1 1 1 2 2 1 0 0 0 0
0 0 0 0 0 1 1 1 1 1 1 0 0 0 1 4 6 7 9 11 10 8 7 6 6 7 8 9 8 6 4 3 3 3 2 3 5 6 5 4 2 2 3 2 1 0 0 0 0
0 0 1 1 1 0 0 1 1 1 0 1 1 1 2 4 8 10 13 16 15 12 9 9 8 8 9 11 10 6 3 3 4 4 5 6 7 7 7 6 4 3 3 2 1 1 1 0 0
0 1 2 2 1 0 1 1 1 2 3 5 4 3 3 5 9 12 15 19 20 17 13 12 12 11 11 12 9 5 2 2 3 4 6 7 7 7 7 6 5 4 4 3 2 2 2 1 0
0 1 3 2 1 1 2 2 2 4 8 10 9 8 7 6 8 11 15 19 22 21 19 17 15 13 12 11 8 6 3 2 3 4 6 7 6 6 6 6 6 4 4 3 3 2 3 2 1
1 1 2 2 1 2 3 2 2 6 10 12 13 13 11 7 7 10 13 18 22 25 25 23 20 15 12 9 9 8 6 3 3 4 6 6 6 6 7 8 7 5 5 4 3 2 2 2 1
0 1 1 1 1 2 3 2 2 5 9 13 14 15 14 10 8 9 12 16 21 26 28 28 25 19 14 11 12 12 9 7 7 8 9 8 8 8 10 11 9 8 6 5 3 2 1 1 0
0 0 0 0 1 2 2 2 3 4 8 12 14 16 16 13 11 10 12 17 24 28 32 32 29 24 20 18 18 17 15 13 14 14 13 12 10 10 11 11 11 10 8 6 5 3 1 0 0
0 0 0 0 0 1 1 2 3 5 7 11 15 17 18 17 14 13 15 21 26 32 35 35 31 28 26 25 24 23 20 19 18 18 17 16 14 12 11 10 11 11 10 8 7 5 2 0 0
0 0 0 0 0 0 1 2 4 6 8 12 15 18 20 19 17 16 19 23 29 33 36 36 35 32 29 27 27 26 23 20 19 19 19 19 18 15 12 11 12 11 9 8 7 6 2 0 0
0 0 0 0 0 0 1 3 5 8 11 13 15 18 20 20 19 19 21 26 30 34 37 38 37 36 31 29 28 27 25 23 22 22 21 20 20 19 17 16 14 10 7 6 6 5 2 0 0
0 0 0 0 0 0 1 3 5 8 11 14 15 18 20 20 20 21 24 28 31 33 36 38 39 39 35 31 29 27 25 24 24 23 21 20 19 20 21 19 15 11 9 8 8 6 3 1 1
0 0 0 0 0 0 1 2 5 7 11 15 17 19 20 21 21 23 28 31 31 31 34 37 40 41 40 38 33 29 25 23 23 22 21 20 21 21 21 19 15 12 11 11 10 8 6 4 3
0 0 0 0 0 0 0 2 5 8 12 16 19 21 20 21 23 26 30 33 31 30 35 38 40 42 44 44 40 34 27 23 23 22 20 20 23 24 22 17 14 11 11 11 10 8 8 7 5